Regional Weather Roundup
Issued by NWS

Home | Current Version | Previous Version | Text Only | Print | Product List | Glossary Off
Versions: 1 2 3 4 5 6 7 8 9 10 11 12 13 14 15 16 17 18 19 20 21 22 23 24 25 26 27

000
ASUS45 KCYS 171110
RWRWY

WYOMING REGIONAL WEATHER ROUNDUP
NATIONAL WEATHER SERVICE CHEYENNE WY
400 AM MST TUE JAN 17 2017

NOTE:  "FAIR" INDICATES FEW OR NO CLOUDS BELOW 12,000 FEET
WITH NO SIGNIFICANT WEATHER AND/OR OBSTRUCTIONS TO VISIBILITY.

WYZ001-171200-
YELLOWSTONE NATIONAL PARK

CITY           SKY/WX    TMP DP  RH WIND       PRES   REMARKS
LK YELLOWSTONE   N/A    -11 -15  82 CALM      30.16S
W YELLOWSTONE  NOT AVBL

$$
WYZ002>013-054>058-071-098>099-171200-
NORTHERN WYOMING

CITY           SKY/WX    TMP DP  RH WIND       PRES   REMARKS
JACKSON        FAIR      -9 -13  84 NE8       30.21F WCI -26
CODY           FAIR       7  -1  70 CALM      29.98F
GREYBULL       FAIR     -13 -18  78 CALM      30.07F
WORLAND        FAIR      -9 -12  87 SW3       30.04F
SHERIDAN       FAIR       6  -1  73 VRB5      29.92F WCI  -3
BUFFALO        FAIR      29   2  31 SW8       29.92F WCI  21
GILLETTE       FAIR      13   5  70 CALM      29.94F
HULETT         FAIR      19   9  63 MISG      29.94F
NEWCASTLE      FAIR      14   7  73 N5        30.01F WCI   6

$$
WYZ014>020-022>026-101>103-171200-
CENTRAL WYOMING

CITY           SKY/WX    TMP DP  RH WIND       PRES   REMARKS
BIG PINEY      FAIR     -20 -25  77 CALM      30.14S
PINEDALE       FAIR     -18 -24  76 CALM      30.13F
DUBOIS         NOT AVBL
LANDER         FAIR       3   0  87 NW7       30.05R WCI  -9
RIVERTON       FAIR       0  -2  91 CALM      30.06S FOG
CASPER         FAIR      19   5  54 SW22G30   30.01F WCI   2
DOUGLAS        FAIR       6   2  83 CALM      30.01F

$$
WYZ021-027>030-104>119-171200-
SOUTHERN WYOMING

CITY           SKY/WX    TMP DP  RH WIND       PRES   REMARKS
EVANSTON       FAIR       8   2  76 SW5       30.13F WCI   0
ROCK SPRINGS   FAIR      -6 -12  75 CALM      30.14F HAZE
RAWLINS        FAIR       0  -7  72 W6        30.11F WCI -12
LARAMIE        FOG       -3  -7  82 W3        30.04S VSB 1
CHEYENNE       FAIR      15   9  76 W7        30.02F WCI   5
TORRINGTON     FAIR      16  11  80 SE6       30.04F WCI   7

$$




USA.gov is the U.S. government's official web portal to all federal, state and local government web resources and services.